Regional Weather Roundup
Issued by NWS

Home | Current Version | Previous Version | Text Only | Print | Product List | Glossary On
Versions: 1 2 3 4 5 6 7 8 9 10 11 12 13 14 15 16 17 18 19 20 21 22 23 24 25 26 27 28 29 30 31 32 33 34 35 36 37 38 39 40 41 42 43 44 45 46 47 48 49 50
000
ASUS44 KMEG 311110
RWRTN
TENNESSEE HOURLY STATE WEATHER ROUNDUP
NATIONAL WEATHER SERVICE MEMPHIS TN
500 AM CST SAT JAN 31 2015

TNZ002-004-019-021-049-052-054-088>092-311200-
WEST TENNESSEE

CITY           SKY/WX    TMP DP  RH WIND       PRES   REMARKS
MEMPHIS INTL   CLOUDY    39  21  48 SE5       30.36S
NWS MEMPHIS      N/A     36 N/A N/A MISG        N/A
JACKSON        CLOUDY    32  23  69 CALM      30.37S
DYERSBURG      CLOUDY    34  16  47 CALM      30.39R
UNION CITY     CLEAR     25  25 100 CALM      30.37R
PARIS          CLEAR     27  21  80 E3        30.37R
LEXINGTON      CLEAR     25  21  86 CALM      30.34F
SAVANNAH       CLEAR     28  25  86 CALM      30.36F
$$

TNZ008-025-027-028-033-062-065-066-311200-
NORTH MIDDLE TENNESSEE

CITY           SKY/WX    TMP DP  RH WIND       PRES   REMARKS
NASHVILLE      PTCLDY    24  20  84 CALM      30.38S
CLARKSVILLE    CLEAR     22  20  92 CALM      30.37F
SMYRNA         PTCLDY    21  19  92 CALM      30.40S
COOKEVILLE     CLEAR     16  16 100 CALM      30.35R
CROSSVILLE     CLEAR     21  17  84 CALM      30.31F
$$

TNZ061-075-076-078-094-096-097-311200-
SOUTH MIDDLE TENNESSEE

CITY           SKY/WX    TMP DP  RH WIND       PRES   REMARKS
FAYETTEVILLE   CLEAR     27  19  74 MISG      30.34S
TULLAHOMA      CLEAR     21  18  86 CALM      30.34F
WINCHESTER     CLEAR     19  18  93 CALM      30.35S
MCMINNVILLE    CLEAR     19  18  93 N3        30.35S
COLUMBIA       CLEAR     25  25 100 CALM      30.35S
SHELBYVILLE    CLEAR     21  19  93 CALM      30.37S
$$

TNZ017-018-042-046-047-311200-
NORTHEAST TENNESSEE

CITY           SKY/WX    TMP DP  RH WIND       PRES   REMARKS
TRI CITIES     CLEAR     17  13  84 CALM      30.35F
ELIZABETHTON   SUNNY     14  10  85 CALM      30.35S
$$

TNZ012-013-036-069-073-074-311200-
CENTRAL EAST TENNESSEE

CITY           SKY/WX    TMP DP  RH WIND       PRES   REMARKS
KNOXVILLE      CLEAR     23  17  78 NE5       30.36S WCI  17
OAK RIDGE      CLEAR     23  17  78 CALM      30.39S
GATLINBURG     SUNNY     16  14  93 CALM      30.37R
MORRISTOWN     SUNNY     19  16  86 CALM      30.36R
$$

TNZ083-085-099-311200-
SOUTHEAST TENNESSEE

CITY           SKY/WX    TMP DP  RH WIND       PRES   REMARKS
CHATTANOOGA    PTCLDY    28  20  71 CALM      30.37S
$$

SKY/WX REPORTED AS FAIR MEANS FEW OR NO CLOUDS BELOW
12 THOUSAND FEET.



USA.gov is the U.S. government's official web portal to all federal, state and local government web resources and services.